Preview of NWS' New Version of Forecast
This preview is not operational and should not be used for support decisions.

Regional Weather Roundup (RWR)

Issued by National Weather Service (NWS)

                            
000
ASUS45 KBOI 202210
RWRID 

IDAHO REGIONAL WEATHER ROUNDUP
NATIONAL WEATHER SERVICE BOISE ID
400 PM MDT FRI SEP 20 2019

NOTE: "FAIR" INDICATES FEW OR NO CLOUDS BELOW 12000 FEET
WITH NO SIGNIFICANT WEATHER AND/OR OBSTRUCTIONS TO VISIBILITY

IDZ012-014-202300-
SOUTHWEST IDAHO

  
CITY           SKY/WX    TMP DP  RH WIND       PRES   REMARKS
BOISE          PTSUNNY   68  40  35 NW17G26   29.96S                  
CALDWELL       MOSUNNY   69  40  34 W16G23    29.97S                  
MOUNTAIN HOME  MOSUNNY   68  35  30 W20G30    29.96R                  
$$

IDZ016-017-202300-
SOUTHCENTRAL IDAHO

  
CITY           SKY/WX    TMP DP  RH WIND       PRES   REMARKS
BURLEY         CLOUDY    57  41  55 W15G23    29.98R                  
JEROME         PTSUNNY   61  41  47 W14       29.97R                  
TWIN FALLS     CLOUDY    62  39  42 W18G26    29.99R                  
$$

IDZ019>023-202300-
SOUTHEAST IDAHO

  
CITY           SKY/WX    TMP DP  RH WIND       PRES   REMARKS
IDAHO FALLS    LGT RAIN  49  43  80 SW14      29.98R                  
POCATELLO      PTSUNNY   56  40  55 W22G28    29.99S                  
REXBURG        RAIN      47  44  90 SW6       29.98R FOG              
$$

IDZ006-010-011-018-031-032-202300-
CENTRAL IDAHO MOUNTAINS

  
CITY           SKY/WX    TMP DP  RH WIND       PRES   REMARKS
MCCALL         MOSUNNY   56  35  45 N10       30.00F                  
HAILEY         LGT RAIN  50  43  76 S5        30.00R                  
STANLEY          N/A     50  36  58 VRB5      30.00R                  
SALMON         CLOUDY    55  43  63 S10       29.96R                  
CHALLIS        CLOUDY    54  38  54 NE5       29.97R                  
$$

IDZ002-004-006-007-026-202300-
NORTHERN IDAHO

  
CITY           SKY/WX    TMP DP  RH WIND       PRES   REMARKS
LEWISTON       CLOUDY    67  46  47 NW13      30.00R                  
LOWELL           N/A     64  53  67 CALM      30.00S                  
COEUR D'ALENE  CLOUDY    60  50  69 SE7       30.01S                  
MULLAN PASS    LGT RAIN  41  40  96 VRB3      30.04R VSB<1/4          
$$